Regional Weather Roundup
Issued by NWS Newport/Morehead, NC

Current Version | Previous Version | Text Only | Print | Product List | Glossary On
Versions: 1 2 3 4 5 6 7 8 9 10 11 12 13 14 15 16 17 18 19 20 21 22 23 24 25 26 27 28 29 30 31 32 33 34 35 36 37 38 39 40 41 42 43 44 45 46 47 48 49 50
000 ASUS42 KMHX 312025 RWRMHX WEATHER ROUNDUP FOR EASTERN NORTH CAROLINA NATIONAL WEATHER SERVICE NEWPORT/MOREHEAD CITY NC 400 PM EDT FRI JUL 31 2015 NOTE: "FAIR" INDICATES FEW OR NO CLOUDS BELOW 12,000 FEET WITH NO SIGNIFICANT WEATHER AND/OR OBSTRUCTIONS TO VISIBILITY NCZ015>017-031-032-045>047-102-103-312100- NORTH COAST CITY SKY/WX TMP DP RH WIND PRES REMARKS EDENTON N/A 89 65 45 E10 29.88F ELIZABETH CITY SUNNY 87 62 43 NE9 29.88F KITTY HAWK CLEAR 88 65 46 NE6 29.88S MANTEO SUNNY 84 67 55 NE13 29.89S $$ NCZ045>047-081-094-103-104-312100- CENTRAL COAST CITY SKY/WX TMP DP RH WIND PRES REMARKS FRISCO PTSUNNY 84 75 74 NE8 29.88F SWANQUARTER N/A 88 N/A N/A N8 29.85S $$ NCZ095-097-098-100-101-312100- SOUTHERN COAST CITY SKY/WX TMP DP RH WIND PRES REMARKS BEAUFORT PTSUNNY 89 77 67 N8 29.87F HX 101 CEDAR ISLAND N/A 84 N/A N/A NE10G16 29.91F JACKSONVILLE PTSUNNY 91 73 55 NW6 29.87F PINEY ISLAND MOCLDY N/A N/A N/A MISG 29.87F WILMINGTON PTSUNNY 90 77 65 SE7 29.87F HX 103 $$ NCZ011>013-027>030-043-044-078>080-089-090>093-098-312100- COASTAL PLAIN CITY SKY/WX TMP DP RH WIND PRES REMARKS AHOSKIE MOSUNNY 87 67 51 N8 29.89F CLINTON SUNNY 94 71 46 NE5 29.88F HX 101 ELIZABETHTOWN PTSUNNY 92 66 42 CALM 29.88S GOLDSBORO SUNNY 92 68 45 N5 29.86F GREENVILLE MOSUNNY 91 70 49 N8 29.89F HAVELOCK PTSUNNY 91 75 59 N7 29.89F HX 101 KENANSVILLE MOSUNNY N/A N/A N/A NW5 29.89F KINSTON MOSUNNY 91 70 49 NW6 29.88F NEW BERN MOSUNNY 90 74 59 CALM 29.89F RICHLANDS PTSUNNY 90 72 55 CALM 29.88S ROCKY MOUNT SUNNY 93 63 36 VRB3 29.89F WASHINGTON SUNNY 89 73 59 N3 29.88S WHITEVILLE MOSUNNY 91 73 54 NE5 29.87F $$ AMZ130-135-150-152-154-156-158-170-250-252-270-ANZ085-086-088-633-658-670-312100- MARINE OBSERVATIONS STATION/POSITION TIME TEMP WIND PRES WAVE SWELL AIR SEA DIR/SP/G HT/PER HT/PER (UTC) (F) (DEG/KT/KT) (MB) (FT/S) (FT/S) CHESAPEAKE LIGHT 2000 81 30/ 6/ 7 1012.5 64 E VA BEACH 1950 82 82 20/ 16/ 17 1010.9 4/ 8 3/ 8 DUCK 2000 81 74 20/ 13/ 15 1011.1 2 E DUCK 1911 80 N/A 3/ 4 OREGON INLET 2000 83 85 10/ 11/ 15 1011.8 13E OREGON INLT 2000 82 N/A 4/ 9 2/11 HATTERAS CG 2000 83 83 20/ 11/ 14 1011.4 DIAMOND BUOY 1950 81 86 10/ 14/ 16 1011.6 4/ 8 3/ 8 CAPE LOOKOUT 2000 85 230/ 10/ 14 1011.1 BEAUFORT LAB 2000 86 85 220/ 3/ 7 1011.0 30 SE NEW RVR IN NOT AVBL 27 SE WRIGHTSVLE 2000 81 85 220/ 4/ 6 N/A 5 SE WRIGHTSVLE NOT AVBL 225 S CAPE HAT 1950 82 81 250/ 19/ 23 1014.9 7/ 8 41 SE CHARLESTON 1950 82 85 200/ 12/ 14 1012.6 2/ 7 2/ 7 $$

USA.gov is the U.S. government's official web portal to all federal, state and local government web resources and services.